QPF
0.13 0.10 0.11 0.11 0.08 0.09 0.10 0.11 0.10 0.10 0.10 0.07 0.07 0.07 0.05 0.07 0.09 0.12 0.12 0.11 0.11 0.14 0.17 0.18 0.15 0.12 0.09 0.09 0.11 0.11 0.12 0.14 0.11 0.09 0.08 0.08 0.09 0.08 0.05 0.04 0.04 0.02 0.03
0.10 0.07 0.06 0.07 0.06 0.07 0.06 0.08 0.09 0.09 0.09 0.07 0.07 0.08 0.07 0.08 0.10 0.13 0.10 0.11 0.13 0.17 0.19 0.17 0.15 0.12 0.12 0.15 0.14 0.14 0.15 0.13 0.11 0.10 0.11 0.10 0.09 0.06 0.05 0.07 0.06 0.04 0.04
0.06 0.04 0.04 0.05 0.07 0.07 0.06 0.06 0.06 0.08 0.10 0.09 0.08 0.09 0.11 0.09 0.11 0.13 0.12 0.12 0.15 0.17 0.14 0.12 0.12 0.15 0.19 0.19 0.18 0.16 0.11 0.09 0.08 0.09 0.09 0.06 0.07 0.06 0.05 0.05 0.05 0.04 0.05
0.04 0.03 0.03 0.05 0.07 0.07 0.07 0.06 0.05 0.08 0.11 0.11 0.09 0.10 0.14 0.16 0.14 0.11 0.11 0.14 0.14 0.12 0.09 0.07 0.08 0.11 0.11 0.10 0.09 0.08 0.06 0.06 0.07 0.06 0.05 0.05 0.04 0.04 0.04 0.04 0.04 0.04 0.04
0.03 0.03 0.03 0.04 0.06 0.06 0.05 0.05 0.05 0.07 0.09 0.11 0.13 0.16 0.19 0.23 0.17 0.11 0.11 0.12 0.11 0.11 0.07 0.04 0.04 0.05 0.05 0.05 0.04 0.05 0.05 0.06 0.05 0.04 0.03 0.03 0.03 0.04 0.03 0.03 0.04 0.04 0.04
0.01 0.01 0.02 0.03 0.05 0.06 0.05 0.05 0.06 0.08 0.11 0.17 0.23 0.19 0.15 0.16 0.14 0.11 0.11 0.09 0.08 0.08 0.06 0.04 0.04 0.04 0.04 0.03 0.03 0.03 0.04 0.05 0.04 0.03 0.02 0.03 0.03 0.04 0.03 0.03 0.04 0.04 0.03
0.01 0.01 0.02 0.03 0.03 0.04 0.05 0.06 0.07 0.11 0.15 0.18 0.19 0.12 0.09 0.10 0.10 0.07 0.06 0.05 0.05 0.05 0.04 0.03 0.04 0.03 0.03 0.03 0.03 0.03 0.05 0.05 0.03 0.04 0.03 0.03 0.03 0.04 0.03 0.03 0.03 0.03 0.03
0.02 0.01 0.02 0.06 0.05 0.04 0.04 0.04 0.05 0.07 0.09 0.11 0.10 0.08 0.07 0.06 0.07 0.06 0.05 0.05 0.05 0.04 0.03 0.04 0.04 0.03 0.02 0.02 0.04 0.05 0.06 0.06 0.04 0.04 0.04 0.05 0.07 0.06 0.04 0.04 0.04 0.04 0.03
0.01 0.02 0.02 0.04 0.04 0.04 0.04 0.05 0.06 0.09 0.08 0.08 0.08 0.07 0.06 0.06 0.06 0.07 0.06 0.06 0.06 0.05 0.04 0.04 0.04 0.03 0.02 0.02 0.03 0.06 0.08 0.09 0.06 0.05 0.04 0.04 0.06 0.07 0.04 0.03 0.03 0.02 0.02
0.01 0.01 0.02 0.01 0.01 0.02 0.04 0.06 0.07 0.10 0.10 0.09 0.08 0.07 0.08 0.07 0.06 0.07 0.07 0.07 0.07 0.06 0.05 0.04 0.04 0.03 0.03 0.02 0.03 0.06 0.09 0.07 0.04 0.04 0.07 0.06 0.06 0.04 0.03 0.02 0.01 0.02 0.02
0.01 0.01 0.02 0.01 0.02 0.02 0.04 0.07 0.08 0.10 0.12 0.11 0.10 0.10 0.08 0.07 0.05 0.07 0.06 0.09 0.10 0.09 0.06 0.06 0.05 0.04 0.04 0.04 0.06 0.08 0.07 0.04 0.05 0.06 0.09 0.07 0.05 0.04 0.03 0.02 0.01 0.02 0.03
0.01 0.02 0.02 0.01 0.02 0.03 0.04 0.06 0.09 0.11 0.12 0.11 0.09 0.08 0.06 0.07 0.08 0.07 0.08 0.10 0.11 0.11 0.11 0.11 0.08 0.06 0.04 0.03 0.06 0.09 0.07 0.06 0.06 0.06 0.06 0.06 0.06 0.05 0.04 0.03 0.02 0.02 0.02
0.01 0.01 0.03 0.02 0.02 0.02 0.04 0.05 0.07 0.09 0.11 0.11 0.12 0.10 0.10 0.10 0.14 0.15 0.13 0.15 0.15 0.14 0.12 0.12 0.07 0.04 0.05 0.05 0.06 0.09 0.08 0.07 0.05 0.04 0.05 0.07 0.06 0.05 0.04 0.04 0.03 0.02 0.02
0.02 0.02 0.02 0.01 0.02 0.03 0.05 0.05 0.05 0.07 0.07 0.06 0.09 0.10 0.10 0.11 0.12 0.16 0.17 0.18 0.19 0.11 0.07 0.08 0.07 0.08 0.09 0.07 0.09 0.08 0.10 0.07 0.05 0.04 0.04 0.04 0.04 0.04 0.04 0.03 0.02 0.01 0.01
0.02 0.04 0.02 0.01 0.01 0.03 0.03 0.05 0.05 0.06 0.06 0.05 0.05 0.06 0.07 0.07 0.10 0.14 0.16 0.18 0.16 0.10 0.07 0.07 0.07 0.07 0.09 0.09 0.07 0.06 0.11 0.08 0.05 0.04 0.03 0.03 0.03 0.03 0.03 0.03 0.02 0.02 0.02
0.01 0.03 0.04 0.02 0.02 0.03 0.03 0.05 0.03 0.04 0.04 0.06 0.07 0.05 0.06 0.07 0.07 0.09 0.12 0.15 0.15 0.12 0.09 0.08 0.08 0.08 0.08 0.08 0.06 0.05 0.07 0.05 0.05 0.03 0.03 0.02 0.02 0.02 0.03 0.02 0.02 0.03 0.02
0.01 0.01 0.03 0.02 0.02 0.02 0.02 0.02 0.02 0.04 0.04 0.05 0.06 0.06 0.06 0.08 0.08 0.08 0.10 0.12 0.11 0.10 0.10 0.10 0.12 0.10 0.07 0.06 0.05 0.06 0.06 0.05 0.05 0.04 0.04 0.03 0.02 0.03 0.04 0.04 0.04 0.03 0.02
0.01 0.01 0.01 0.01 0.01 0.01 0.01 0.01 0.02 0.03 0.05 0.05 0.06 0.09 0.07 0.07 0.09 0.09 0.09 0.07 0.06 0.06 0.06 0.07 0.09 0.10 0.09 0.08 0.07 0.07 0.07 0.07 0.07 0.08 0.07 0.05 0.05 0.05 0.05 0.06 0.05 0.03 0.03
0.01 0.01 0.01 0.00 0.00 0.00 0.00 0.01 0.01 0.02 0.03 0.04 0.06 0.10 0.09 0.07 0.08 0.08 0.08 0.08 0.05 0.05 0.07 0.07 0.08 0.09 0.10 0.10 0.10 0.10 0.08 0.07 0.08 0.11 0.09 0.06 0.06 0.06 0.04 0.05 0.05 0.04 0.03
0.01 0.01 0.01 0.00 0.00 0.00 0.00 0.00 0.01 0.02 0.02 0.03 0.05 0.07 0.08 0.07 0.06 0.06 0.07 0.07 0.05 0.06 0.08 0.10 0.11 0.11 0.13 0.12 0.10 0.12 0.12 0.10 0.08 0.07 0.07 0.07 0.05 0.04 0.04 0.04 0.04 0.04 0.05
0.00 0.00 0.01 0.00 0.00 0.00 0.00 0.00 0.01 0.02 0.02 0.04 0.05 0.04 0.06 0.06 0.04 0.05 0.06 0.06 0.06 0.06 0.07 0.08 0.09 0.11 0.13 0.12 0.10 0.09 0.10 0.09 0.08 0.06 0.07 0.06 0.06 0.06 0.05 0.05 0.06 0.05 0.03
0.01 0.00 0.00 0.00 0.00 0.00 0.00 0.01 0.01 0.02 0.03 0.04 0.04 0.04 0.04 0.05 0.05 0.05 0.04 0.04 0.04 0.06 0.07 0.07 0.07 0.08 0.08 0.09 0.10 0.10 0.10 0.10 0.08 0.07 0.08 0.08 0.09 0.09 0.08 0.09 0.09 0.07 0.05
0.01 0.00 0.00 0.00 0.00 0.00 0.00 0.00 0.00 0.01 0.01 0.01 0.02 0.02 0.04 0.05 0.06 0.05 0.03 0.04 0.05 0.06 0.06 0.07 0.08 0.09 0.08 0.10 0.11 0.11 0.09 0.10 0.09 0.08 0.08 0.08 0.10 0.10 0.14 0.15 0.13 0.11 0.09
0.01 0.01 0.00 0.00 0.00 0.00 0.00 0.00 0.00 0.00 0.00 0.00 0.01 0.01 0.03 0.04 0.05 0.05 0.03 0.04 0.05 0.06 0.05 0.06 0.07 0.07 0.10 0.12 0.10 0.10 0.11 0.11 0.12 0.09 0.07 0.08 0.12 0.16 0.17 0.13 0.14 0.16 0.15
0.01 0.01 0.01 0.01 0.01 0.01 0.01 0.01 0.01 0.01 0.01 0.01 0.01 0.01 0.02 0.03 0.04 0.06 0.06 0.06 0.06 0.07 0.05 0.06 0.07 0.07 0.07 0.08 0.08 0.09 0.12 0.12 0.13 0.10 0.07 0.08 0.08 0.11 0.11 0.09 0.10 0.12 0.15
0.03 0.05 0.03 0.01 0.01 0.02 0.02 0.02 0.02 0.02 0.02 0.02 0.02 0.01 0.02 0.02 0.03 0.04 0.05 0.06 0.06 0.06 0.04 0.04 0.05 0.06 0.06 0.05 0.06 0.06 0.07 0.07 0.08 0.08 0.06 0.06 0.06 0.06 0.09 0.09 0.09 0.08 0.08
MSLP
1013.08 1012.66 1012.34 1012.17 1012.15 1012.23 1012.38 1012.53 1012.65 1012.73 1012.78 1012.83 1012.92 1013.08 1013.31 1013.61 1013.93 1014.24 1014.50 1014.67 1014.76 1014.78 1014.77 1014.76 1014.80 1014.89 1015.03 1015.20 1015.39 1015.55 1015.69 1015.78 1015.85 1015.90 1015.96 1016.04 1016.15 1016.27 1016.41 1016.54 1016.64 1016.72 1016.77
1012.98 1012.69 1012.49 1012.43 1012.48 1012.60 1012.75 1012.89 1012.99 1013.04 1013.07 1013.12 1013.22 1013.40 1013.65 1013.97 1014.30 1014.60 1014.84 1014.99 1015.06 1015.06 1015.04 1015.02 1015.05 1015.13 1015.27 1015.44 1015.61 1015.76 1015.88 1015.97 1016.03 1016.08 1016.15 1016.23 1016.35 1016.49 1016.63 1016.76 1016.87 1016.95 1017.00
1012.69 1012.54 1012.48 1012.54 1012.68 1012.87 1013.06 1013.21 1013.31 1013.35 1013.37 1013.42 1013.52 1013.69 1013.94 1014.25 1014.56 1014.84 1015.05 1015.18 1015.23 1015.22 1015.20 1015.19 1015.22 1015.31 1015.45 1015.61 1015.78 1015.93 1016.04 1016.13 1016.20 1016.27 1016.34 1016.45 1016.57 1016.72 1016.86 1016.99 1017.10 1017.19 1017.24
1012.29 1012.27 1012.35 1012.53 1012.78 1013.05 1013.30 1013.48 1013.58 1013.63 1013.66 1013.70 1013.79 1013.95 1014.18 1014.45 1014.72 1014.97 1015.14 1015.25 1015.29 1015.29 1015.28 1015.29 1015.34 1015.45 1015.59 1015.75 1015.92 1016.06 1016.18 1016.28 1016.37 1016.45 1016.55 1016.67 1016.81 1016.95 1017.09 1017.22 1017.33 1017.41 1017.47
1011.90 1011.99 1012.18 1012.47 1012.82 1013.16 1013.45 1013.67 1013.80 1013.87 1013.90 1013.94 1014.02 1014.16 1014.35 1014.58 1014.81 1015.01 1015.16 1015.25 1015.29 1015.31 1015.33 1015.37 1015.45 1015.57 1015.72 1015.88 1016.04 1016.18 1016.30 1016.41 1016.52 1016.63 1016.75 1016.88 1017.02 1017.16 1017.29 1017.41 1017.51 1017.60 1017.67
1011.61 1011.78 1012.05 1012.42 1012.83 1013.22 1013.55 1013.79 1013.95 1014.04 1014.09 1014.14 1014.22 1014.34 1014.51 1014.69 1014.87 1015.03 1015.16 1015.24 1015.30 1015.35 1015.40 1015.48 1015.59 1015.72 1015.86 1016.01 1016.15 1016.28 1016.40 1016.51 1016.62 1016.75 1016.88 1017.03 1017.17 1017.30 1017.43 1017.54 1017.63 1017.73 1017.82
1011.49 1011.70 1012.03 1012.43 1012.85 1013.26 1013.60 1013.86 1014.04 1014.15 1014.23 1014.30 1014.39 1014.51 1014.65 1014.81 1014.96 1015.09 1015.19 1015.28 1015.35 1015.43 1015.52 1015.63 1015.76 1015.89 1016.02 1016.14 1016.24 1016.34 1016.43 1016.53 1016.65 1016.78 1016.93 1017.08 1017.23 1017.36 1017.47 1017.58 1017.67 1017.78 1017.89
1011.54 1011.78 1012.11 1012.51 1012.92 1013.30 1013.63 1013.88 1014.06 1014.20 1014.31 1014.42 1014.54 1014.67 1014.82 1014.96 1015.08 1015.20 1015.29 1015.38 1015.48 1015.58 1015.70 1015.83 1015.95 1016.07 1016.17 1016.24 1016.30 1016.34 1016.40 1016.47 1016.57 1016.71 1016.86 1017.02 1017.17 1017.31 1017.42 1017.53 1017.63 1017.75 1017.89
1011.71 1011.96 1012.28 1012.64 1013.01 1013.34 1013.63 1013.85 1014.04 1014.20 1014.35 1014.50 1014.66 1014.83 1014.99 1015.13 1015.25 1015.36 1015.45 1015.54 1015.64 1015.76 1015.89 1016.02 1016.14 1016.23 1016.28 1016.30 1016.29 1016.27 1016.28 1016.32 1016.40 1016.53 1016.68 1016.85 1017.02 1017.16 1017.29 1017.41 1017.53 1017.66 1017.83
1011.89 1012.15 1012.46 1012.78 1013.09 1013.36 1013.59 1013.78 1013.96 1014.14 1014.32 1014.53 1014.74 1014.95 1015.14 1015.30 1015.43 1015.53 1015.61 1015.70 1015.81 1015.93 1016.06 1016.19 1016.28 1016.34 1016.34 1016.29 1016.22 1016.15 1016.10 1016.11 1016.17 1016.28 1016.44 1016.62 1016.80 1016.97 1017.12 1017.26 1017.40 1017.56 1017.74
1011.98 1012.26 1012.56 1012.85 1013.11 1013.32 1013.50 1013.66 1013.82 1014.02 1014.24 1014.50 1014.76 1015.01 1015.24 1015.41 1015.55 1015.65 1015.74 1015.83 1015.93 1016.05 1016.17 1016.28 1016.36 1016.38 1016.34 1016.24 1016.12 1016.00 1015.92 1015.89 1015.92 1016.03 1016.19 1016.38 1016.58 1016.78 1016.95 1017.11 1017.28 1017.46 1017.66
1011.89 1012.21 1012.52 1012.80 1013.01 1013.18 1013.32 1013.45 1013.62 1013.82 1014.08 1014.38 1014.68 1014.98 1015.23 1015.43 1015.58 1015.69 1015.77 1015.86 1015.97 1016.08 1016.20 1016.30 1016.36 1016.36 1016.29 1016.17 1016.03 1015.88 1015.77 1015.71 1015.74 1015.84 1015.99 1016.19 1016.41 1016.62 1016.82 1017.01 1017.19 1017.38 1017.58
1011.59 1011.96 1012.30 1012.58 1012.78 1012.92 1013.04 1013.16 1013.33 1013.55 1013.83 1014.16 1014.50 1014.82 1015.10 1015.32 1015.48 1015.60 1015.70 1015.80 1015.91 1016.03 1016.15 1016.25 1016.31 1016.30 1016.24 1016.12 1015.97 1015.82 1015.70 1015.64 1015.65 1015.74 1015.89 1016.08 1016.30 1016.52 1016.73 1016.94 1017.13 1017.33 1017.52
1011.11 1011.53 1011.90 1012.19 1012.40 1012.54 1012.66 1012.79 1012.96 1013.20 1013.50 1013.84 1014.20 1014.54 1014.83 1015.07 1015.26 1015.40 1015.52 1015.64 1015.77 1015.91 1016.04 1016.16 1016.23 1016.24 1016.20 1016.10 1015.97 1015.84 1015.74 1015.68 1015.69 1015.76 1015.89 1016.07 1016.27 1016.48 1016.69 1016.90 1017.09 1017.28 1017.46
1010.51 1010.97 1011.36 1011.67 1011.89 1012.05 1012.19 1012.34 1012.54 1012.79 1013.10 1013.45 1013.81 1014.15 1014.45 1014.71 1014.92 1015.09 1015.25 1015.41 1015.58 1015.75 1015.92 1016.05 1016.15 1016.20 1016.18 1016.13 1016.04 1015.95 1015.87 1015.83 1015.83 1015.89 1015.99 1016.13 1016.30 1016.49 1016.68 1016.87 1017.05 1017.23 1017.39
1009.88 1010.34 1010.75 1011.07 1011.31 1011.50 1011.68 1011.86 1012.08 1012.36 1012.67 1013.01 1013.36 1013.69 1013.99 1014.26 1014.50 1014.72 1014.93 1015.15 1015.36 1015.58 1015.78 1015.95 1016.08 1016.16 1016.19 1016.18 1016.15 1016.10 1016.06 1016.04 1016.05 1016.09 1016.16 1016.26 1016.38 1016.52 1016.68 1016.84 1017.01 1017.17 1017.31
1009.28 1009.73 1010.12 1010.44 1010.70 1010.94 1011.16 1011.39 1011.65 1011.94 1012.26 1012.58 1012.90 1013.21 1013.50 1013.77 1014.04 1014.30 1014.58 1014.86 1015.14 1015.41 1015.65 1015.85 1016.01 1016.13 1016.20 1016.24 1016.25 1016.26 1016.27 1016.28 1016.30 1016.33 1016.36 1016.42 1016.49 1016.58 1016.69 1016.82 1016.96 1017.10 1017.23
1008.75 1009.15 1009.51 1009.83 1010.11 1010.39 1010.67 1010.96 1011.26 1011.58 1011.89 1012.19 1012.47 1012.74 1013.01 1013.28 1013.57 1013.88 1014.21 1014.56 1014.90 1015.22 1015.50 1015.74 1015.92 1016.06 1016.16 1016.25 1016.32 1016.39 1016.45 1016.50 1016.55 1016.57 1016.59 1016.60 1016.62 1016.66 1016.73 1016.83 1016.94 1017.07 1017.19
1008.27 1008.61 1008.93 1009.24 1009.55 1009.88 1010.23 1010.59 1010.95 1011.29 1011.60 1011.87 1012.10 1012.33 1012.55 1012.81 1013.11 1013.46 1013.84 1014.25 1014.65 1015.01 1015.33 1015.58 1015.78 1015.94 1016.07 1016.20 1016.32 1016.45 1016.58 1016.68 1016.76 1016.81 1016.82 1016.81 1016.79 1016.79 1016.82 1016.89 1016.98 1017.10 1017.22
1007.77 1008.07 1008.36 1008.67 1009.02 1009.41 1009.84 1010.28 1010.69 1011.07 1011.38 1011.62 1011.81 1011.97 1012.15 1012.38 1012.68 1013.04 1013.47 1013.92 1014.36 1014.76 1015.10 1015.37 1015.58 1015.75 1015.91 1016.07 1016.25 1016.44 1016.64 1016.81 1016.94 1017.02 1017.05 1017.03 1017.00 1016.97 1016.98 1017.02 1017.10 1017.21 1017.33
1007.21 1007.48 1007.76 1008.09 1008.49 1008.95 1009.47 1009.99 1010.48 1010.89 1011.21 1011.42 1011.56 1011.67 1011.80 1011.99 1012.27 1012.64 1013.08 1013.56 1014.04 1014.46 1014.82 1015.10 1015.32 1015.50 1015.68 1015.88 1016.11 1016.37 1016.64 1016.88 1017.08 1017.21 1017.27 1017.27 1017.24 1017.20 1017.18 1017.20 1017.27 1017.37 1017.50
1006.54 1006.80 1007.10 1007.46 1007.92 1008.47 1009.08 1009.69 1010.26 1010.72 1011.05 1011.25 1011.35 1011.41 1011.48 1011.63 1011.88 1012.24 1012.69 1013.18 1013.68 1014.12 1014.49 1014.78 1015.00 1015.20 1015.40 1015.64 1015.92 1016.24 1016.58 1016.90 1017.17 1017.36 1017.46 1017.49 1017.46 1017.42 1017.39 1017.40 1017.46 1017.56 1017.68
1005.76 1006.05 1006.37 1006.78 1007.30 1007.93 1008.63 1009.33 1009.97 1010.48 1010.84 1011.04 1011.12 1011.14 1011.17 1011.28 1011.50 1011.84 1012.29 1012.79 1013.29 1013.74 1014.12 1014.42 1014.66 1014.87 1015.09 1015.36 1015.69 1016.06 1016.46 1016.84 1017.18 1017.42 1017.57 1017.63 1017.62 1017.58 1017.55 1017.55 1017.60 1017.69 1017.82
1004.94 1005.25 1005.60 1006.05 1006.63 1007.32 1008.09 1008.86 1009.56 1010.13 1010.52 1010.73 1010.82 1010.83 1010.84 1010.93 1011.13 1011.45 1011.89 1012.38 1012.89 1013.35 1013.74 1014.05 1014.30 1014.52 1014.76 1015.05 1015.41 1015.82 1016.26 1016.69 1017.07 1017.36 1017.54 1017.63 1017.64 1017.61 1017.58 1017.58 1017.62 1017.71 1017.84
1004.17 1004.50 1004.86 1005.33 1005.92 1006.64 1007.44 1008.25 1009.00 1009.62 1010.05 1010.30 1010.41 1010.44 1010.47 1010.56 1010.75 1011.07 1011.50 1011.98 1012.48 1012.94 1013.33 1013.65 1013.91 1014.15 1014.41 1014.71 1015.08 1015.51 1015.97 1016.43 1016.83 1017.14 1017.35 1017.46 1017.49 1017.48 1017.46 1017.46 1017.50 1017.59 1017.72
1003.56 1003.87 1004.21 1004.65 1005.22 1005.91 1006.70 1007.52 1008.28 1008.93 1009.41 1009.72 1009.89 1009.97 1010.03 1010.15 1010.36 1010.68 1011.10 1011.58 1012.07 1012.52 1012.92 1013.24 1013.50 1013.75 1014.01 1014.32 1014.69 1015.12 1015.58 1016.03 1016.43 1016.76 1016.99 1017.12 1017.17 1017.18 1017.18 1017.19 1017.24 1017.34 1017.47
Thickness
5782 5786 5788 5788 5789 5789 5790 5790 5791 5791 5792 5792 5791 5789 5788 5787 5786 5784 5784 5782 5782 5781 5781 5779 5777 5775 5773 5772 5770 5768 5767 5765 5764 5763 5762 5761 5760 5759 5757 5756 5755 5754 5753
5786 5787 5788 5788 5789 5789 5789 5790 5790 5791 5791 5790 5788 5787 5786 5785 5784 5783 5783 5782 5781 5780 5780 5778 5776 5774 5772 5771 5769 5767 5765 5764 5763 5762 5761 5760 5759 5758 5757 5756 5754 5753 5752
5788 5788 5788 5789 5789 5789 5789 5789 5789 5790 5790 5788 5787 5786 5785 5784 5783 5782 5782 5781 5779 5778 5777 5775 5774 5772 5771 5769 5767 5766 5764 5764 5762 5761 5760 5759 5758 5757 5756 5755 5753 5752 5750
5788 5788 5788 5788 5789 5789 5789 5789 5789 5788 5788 5787 5785 5785 5784 5784 5782 5781 5781 5780 5778 5777 5775 5774 5772 5770 5769 5768 5766 5765 5764 5762 5761 5760 5759 5758 5757 5756 5755 5754 5752 5751 5749
5788 5788 5788 5788 5788 5788 5789 5788 5788 5787 5786 5785 5784 5783 5783 5782 5781 5780 5780 5778 5777 5775 5774 5773 5771 5770 5768 5767 5766 5764 5763 5762 5761 5760 5759 5758 5757 5755 5754 5753 5751 5750 5748
5787 5787 5787 5787 5787 5787 5787 5787 5786 5786 5784 5784 5783 5782 5781 5780 5780 5779 5778 5777 5775 5774 5773 5772 5771 5769 5768 5766 5765 5764 5764 5762 5761 5759 5758 5757 5756 5755 5753 5752 5750 5749 5747
5787 5787 5787 5786 5786 5786 5786 5786 5785 5784 5783 5782 5781 5780 5779 5779 5778 5777 5776 5775 5774 5773 5772 5771 5770 5768 5767 5766 5765 5765 5765 5763 5761 5760 5758 5757 5756 5754 5753 5751 5749 5748 5746
5787 5786 5786 5786 5785 5785 5785 5784 5784 5783 5782 5781 5780 5779 5778 5777 5776 5775 5774 5773 5772 5771 5770 5770 5768 5767 5766 5765 5765 5765 5765 5764 5761 5759 5758 5756 5755 5753 5752 5750 5749 5747 5745
5788 5786 5786 5785 5785 5784 5784 5783 5783 5781 5781 5780 5779 5778 5777 5776 5775 5774 5773 5772 5771 5770 5770 5769 5768 5766 5766 5765 5764 5764 5764 5762 5760 5758 5757 5755 5754 5752 5751 5749 5747 5746 5744
5787 5786 5785 5785 5784 5783 5782 5782 5782 5780 5780 5779 5778 5777 5776 5775 5774 5773 5772 5771 5770 5769 5769 5768 5767 5766 5765 5764 5763 5762 5761 5760 5758 5757 5756 5754 5753 5752 5750 5748 5746 5745 5743
5784 5785 5785 5784 5783 5782 5782 5781 5781 5780 5779 5778 5777 5776 5775 5774 5773 5772 5772 5771 5770 5769 5768 5767 5766 5765 5764 5763 5762 5761 5759 5758 5757 5756 5755 5753 5752 5750 5749 5747 5745 5744 5742
5782 5783 5784 5784 5783 5783 5782 5781 5780 5779 5778 5777 5776 5775 5774 5773 5772 5771 5771 5770 5769 5768 5768 5766 5765 5764 5763 5762 5760 5759 5758 5757 5755 5754 5753 5752 5751 5749 5748 5746 5744 5743 5741
5785 5786 5786 5785 5784 5783 5782 5781 5779 5778 5777 5776 5775 5775 5773 5772 5771 5771 5770 5769 5768 5768 5767 5765 5764 5762 5762 5760 5759 5758 5757 5755 5754 5752 5752 5751 5749 5747 5746 5744 5743 5741 5740
5786 5786 5787 5787 5785 5784 5783 5781 5780 5778 5777 5776 5775 5775 5773 5772 5771 5770 5769 5768 5767 5767 5765 5764 5763 5761 5760 5759 5758 5757 5755 5754 5752 5751 5751 5750 5748 5747 5745 5743 5741 5740 5738
5788 5788 5788 5788 5787 5786 5784 5782 5781 5779 5778 5777 5776 5775 5773 5772 5770 5769 5768 5767 5766 5765 5764 5762 5761 5760 5759 5757 5757 5756 5754 5752 5751 5750 5749 5749 5748 5746 5744 5742 5741 5739 5737
5790 5790 5790 5790 5789 5787 5785 5783 5782 5781 5779 5777 5776 5775 5774 5773 5771 5769 5767 5766 5765 5764 5763 5761 5760 5759 5757 5756 5755 5754 5753 5751 5750 5749 5748 5747 5746 5745 5744 5742 5740 5739 5737
5793 5793 5792 5791 5790 5788 5786 5785 5783 5781 5779 5778 5776 5775 5774 5773 5771 5769 5767 5765 5764 5763 5762 5760 5759 5757 5755 5754 5753 5752 5751 5750 5749 5747 5746 5745 5744 5743 5742 5741 5739 5738 5736
5796 5794 5793 5794 5791 5789 5787 5785 5784 5781 5780 5778 5777 5776 5774 5773 5771 5769 5767 5765 5764 5762 5761 5759 5757 5755 5753 5751 5750 5750 5749 5748 5747 5746 5744 5743 5742 5741 5740 5739 5738 5737 5736
5799 5796 5794 5793 5791 5790 5788 5786 5784 5782 5780 5779 5777 5776 5774 5773 5771 5769 5767 5765 5763 5761 5759 5758 5755 5753 5750 5748 5748 5748 5747 5746 5745 5744 5742 5741 5740 5739 5738 5737 5736 5735 5735
5801 5798 5796 5794 5792 5790 5788 5785 5783 5781 5780 5779 5778 5776 5775 5773 5771 5768 5766 5764 5763 5760 5758 5756 5753 5751 5749 5747 5746 5745 5744 5744 5744 5742 5741 5740 5738 5737 5736 5735 5734 5734 5733
5801 5798 5796 5794 5792 5790 5787 5783 5780 5778 5779 5778 5778 5776 5775 5773 5771 5769 5767 5764 5762 5759 5757 5755 5753 5749 5747 5746 5741 5738 5739 5741 5741 5741 5740 5739 5737 5737 5735 5734 5733 5732 5732
5802 5799 5797 5795 5793 5791 5789 5786 5784 5781 5779 5778 5777 5776 5775 5773 5771 5769 5767 5764 5762 5759 5756 5754 5752 5748 5746 5745 5740 5733 5729 5731 5736 5739 5738 5737 5736 5735 5734 5733 5732 5730 5729
5803 5801 5800 5797 5795 5793 5790 5787 5784 5780 5778 5776 5775 5775 5775 5774 5772 5770 5768 5765 5762 5760 5757 5755 5753 5748 5744 5743 5742 5735 5726 5723 5727 5732 5734 5734 5733 5733 5732 5731 5730 5729 5728
5806 5805 5802 5799 5797 5794 5791 5787 5782 5777 5774 5774 5775 5775 5775 5774 5772 5771 5768 5766 5763 5760 5757 5755 5753 5750 5745 5741 5740 5739 5736 5732 5724 5722 5726 5729 5730 5729 5728 5729 5728 5727 5726
5810 5807 5804 5800 5797 5795 5792 5788 5783 5779 5777 5776 5776 5774 5773 5773 5772 5771 5769 5766 5763 5760 5758 5755 5753 5750 5747 5743 5740 5738 5734 5731 5729 5721 5718 5721 5724 5726 5727 5726 5725 5724 5723
5812 5808 5805 5800 5797 5796 5792 5789 5785 5781 5778 5775 5773 5772 5772 5771 5771 5770 5769 5766 5764 5761 5758 5755 5752 5749 5746 5743 5741 5738 5734 5730 5726 5723 5719 5718 5718 5722 5724 5724 5723 5722 5721